Вернуться в каталог

QIANFAN-80

АктивенСвязьPO
NORAD 63166·PAYLOAD·🇨🇳 China

Запущен Mar 11, 2025 с Wenchang Space Launch Site

Loading…

Ближайшие Пролёты (ближайшие 24 часа)

TLE

СвежийSource: Space-Track

Эпоха: Sep 14, 2026, 21:55 UTC

1 63166U 25046H   26257.91365938  .00000058  00000-0  70470-4 0  9990
2 63166  88.9652 291.1351 0015303  59.9388 300.3278 13.51029461 84825

Отслеживайте QIANFAN-80 в реальном времени с AllMySat

Download on the App Store